Tracking 25612 objects as of 20-May-2022
HD Live streaming from Space Station
objects crossing your sky now

COSMOS 2251 DEB

Track COSMOS 2251 DEB now!
10-day predictions


NORAD ID: 40796
Int'l Code: 1993-036BVZ
Perigee: 636.0 km
Apogee: 747.5 km
Inclination: 74.0 °
Period: 98.5 minutes
Semi major axis: 7062 km
RCS: Unknown
Launch date: June 16, 1993
Source: Commonwealth of Independent States (former USSR) (CIS)
Launch site: PLESETSK MISSILE AND SPACE COMPLEX (PKMTR)

Note: This is SATELLITE DEBRIS
aabbcc
Your satellite tracking list
Your tracking list is empty




NASA's NSSDC Master Catalog

Two Line Element Set (TLE):
1 40796U 93036BVZ 22139.38768784  .00002896  00000-0  55054-3 0  9992
2 40796  74.0203 153.0259 0078971 257.4605 167.3221 14.62649191570030
Source of the keplerian elements: AFSPC